Location: ?ern� Novina
(50.6762°N, 14.8696°E)
Time: 17:15:28
(UTC+00:00)

YAOGAN 1 - Pass Details

Date: 03 March 2021
Orbit: 618 x 620 km, 97.9° (Epoch: 12 April)

Event Time Altitude Azimuth Distance (km) Brightness Sun altitude
Rises 17:37:57 0° 167° (SSE) 2,886 5.8 -9.1°
Reaches altitude 10° 17:40:07 10° 168° (SSE) 1,985 5.0 -9.4°
Maximum altitude 17:44:27 81° 256° (WSW) 635 2.7 -10.1°
Drops below altitude 10° 17:48:49 10° 344° (NNW) 2,001 5.4 -10.8°
Sets 17:51:01 0° 346° (NNW) 2,912 6.3 -11.2°
